Location: Colonia Mina de C?rbuni
(46.1667°N, 22.7167°E)
Time: 06:46:17
(UTC+00:00)

Tiros 1 - Pass Details

Date: 27 April 2024
Orbit: 624 x 657 km, 48.4° (Epoch: 25 May)

Event Time Altitude Azimuth Distance (km) Brightness Sun altitude
Exits shadow 01:20:36 26° 273° (W) 1,229 8.2 -18.3°
Maximum altitude 01:22:54 52° 209° (SSW) 780 7.2 -18.0°
Drops below altitude 10° 01:27:20 10° 133° (SE) 1,989 9.7 -17.5°
Sets 01:29:41 0° 129° (SE) 2,892 10.6 -17.2°
